Location: Strada George Coșbuc
(47.6577°N, 23.5639°E)
Time: 15:05:16
(UTC+03:00)

ISS - Pass Details

Date: 09 October 2017
Orbit: 401 x 408 km, 51.6° (Epoch: 23 October)

Event Time Altitude Azimuth Distance (km) Brightness Sun altitude
Rises 19:46:54 0° 291° (WNW) 2,327 1.6 -10.5°
Reaches altitude 10° 19:49:01 10° 296° (WNW) 1,467 0.2 -10.9°
Maximum altitude 19:52:15 52° 14° (NNE) 516 -3.4 -11.4°
Enters shadow 19:54:17 20° 85° (E) 1,013 -2.5 -11.8°
